Wind_Speed
81 83 83 87 87 84 79 74 75 77 76 78 80 77 79 82 77 79 88 90 92 95 100 106 109 112 118 117 119 124 127 130 135 138 141 146 146 150 153 155 161 165 167
79 81 79 78 80 75 65 62 65 61 59 65 70 69 74 78 84 86 90 92 98 102 103 108 113 117 117 119 124 127 133 139 140 140 147 149 152 156 160 166 167 170 171
75 76 77 77 73 65 58 53 57 60 64 68 72 73 79 82 82 87 93 99 105 109 112 115 121 122 122 126 128 133 137 139 143 150 151 155 160 163 167 169 171 171 169
78 78 73 72 66 58 62 61 63 68 69 72 75 81 87 89 91 97 99 102 108 111 114 118 122 126 127 130 133 138 142 146 151 155 158 162 164 169 172 173 168 166 150
77 72 66 62 55 56 58 62 69 77 77 82 84 90 97 96 99 102 104 109 111 114 115 120 125 129 131 138 141 146 148 152 155 158 164 167 175 176 174 173 163 153 157
70 64 58 53 62 66 69 66 73 78 82 88 89 94 93 97 100 104 106 109 114 119 119 123 127 132 135 138 143 149 154 158 163 164 170 172 177 172 170 159 157 161 157
50 52 52 60 67 66 70 70 77 83 84 86 88 94 98 101 107 109 110 115 116 118 124 130 135 139 141 144 150 157 162 162 169 172 177 176 175 167 156 161 160 156 151
45 57 62 62 66 73 73 78 79 85 87 88 94 98 102 105 108 112 115 116 119 122 130 138 141 146 148 153 156 158 165 170 174 176 175 171 162 162 163 160 152 150 147
57 61 63 67 67 69 75 81 85 87 88 94 98 101 105 106 113 116 115 118 123 127 135 139 143 144 152 158 162 165 170 168 170 172 161 158 164 162 156 152 150 144 136
70 64 70 75 76 75 77 79 83 86 87 89 94 96 102 107 113 115 121 120 126 131 137 147 152 152 155 160 165 169 169 170 161 157 165 162 160 155 152 147 141 136 129
51 56 57 67 75 81 82 83 87 89 95 97 96 103 110 113 113 116 124 124 130 135 141 145 150 158 160 164 170 169 154 153 161 159 157 153 150 146 141 138 134 128 126
58 63 69 65 70 76 79 84 89 92 98 102 99 101 107 114 114 119 125 134 139 143 149 152 158 161 169 167 154 153 157 155 155 154 150 146 141 139 134 132 131 127 122
59 59 67 75 78 89 94 91 93 95 97 100 108 113 113 114 121 129 135 141 144 148 153 156 160 155 144 151 152 149 150 151 150 147 142 138 137 135 135 132 126 120 116
68 72 67 76 79 79 82 89 95 99 103 103 108 116 122 124 126 130 134 140 143 149 153 147 139 146 146 144 144 147 147 142 138 135 136 137 136 133 128 122 118 111 104
61 65 70 73 79 85 87 89 95 100 106 111 116 119 120 126 132 136 142 146 142 131 137 139 138 138 140 142 142 139 136 133 135 136 136 133 128 124 122 116 109 102 96
65 68 72 77 83 89 94 98 102 106 110 114 118 123 127 134 138 135 127 127 132 130 130 131 133 134 134 131 130 134 136 134 132 131 128 123 120 119 112 107 101 95 89
69 71 75 84 89 95 100 104 107 114 116 122 124 129 127 111 117 124 122 121 121 123 124 124 125 126 127 130 132 132 129 125 122 121 118 119 114 109 104 100 95 89 85
72 78 82 89 94 94 101 101 96 96 95 95 100 109 113 111 107 108 110 112 115 116 116 118 122 123 125 125 122 118 120 120 116 115 114 110 105 100 97 94 89 82 76
74 80 88 93 96 84 79 85 89 95 99 100 97 95 95 96 96 99 104 109 111 114 116 118 117 116 115 115 114 116 117 115 113 111 107 102 97 93 90 87 81 74 70
76 76 67 70 75 79 84 86 85 81 79 81 85 86 88 93 98 101 101 103 105 106 107 107 109 110 109 110 113 114 114 113 110 104 99 95 90 87 84 80 74 69 65
58 62 68 72 74 73 69 70 73 77 77 78 80 83 87 88 90 92 95 98 100 103 103 104 106 108 109 112 111 112 112 109 103 99 93 88 84 81 77 72 68 62 57
62 64 66 66 68 68 69 71 73 74 73 72 72 74 78 81 86 90 91 94 97 99 101 102 105 107 108 108 108 109 107 102 98 93 88 83 79 75 71 66 62 56 52
60 60 61 66 69 71 72 74 73 70 73 73 75 79 80 82 84 86 90 93 97 99 101 102 104 105 105 106 105 102 99 95 91 86 82 79 75 70 67 62 56 51 49
58 59 66 69 72 74 74 75 77 81 84 85 87 88 87 88 88 90 91 95 97 101 103 105 104 103 105 104 100 96 91 87 85 81 77 73 69 65 62 57 51 47 46
59 63 72 73 77 79 78 80 83 89 91 92 92 90 90 90 91 94 95 98 102 105 107 105 104 104 103 100 94 89 85 81 78 76 72 69 66 61 57 52 48 46 44
65 70 75 77 82 85 85 88 91 96 94 96 93 92 91 92 92 94 97 102 106 107 106 105 105 103 101 95 90 84 80 77 74 71 67 65 61 56 52 49 45 43 42
Wind_Direction
251 254 256 257 260 267 268 269 271 270 274 276 277 278 280 282 279 277 282 283 285 286 284 286 291 292 292 295 296 296 297 296 297 298 298 300 299 300 300 299 300 301 303
252 255 256 259 260 265 269 266 267 271 272 276 275 275 277 278 276 278 279 282 283 286 287 288 287 289 291 293 296 296 296 297 297 297 298 299 298 299 301 303 302 302 303
251 255 256 259 262 266 269 269 265 270 270 268 275 274 272 274 274 277 279 281 284 285 287 287 288 289 290 294 295 295 295 295 295 297 297 298 299 299 303 303 302 302 301
250 252 256 258 262 257 260 255 258 263 266 265 270 270 274 275 275 280 282 283 283 285 288 289 289 289 293 294 294 293 293 295 296 296 296 298 299 301 302 301 301 301 301
246 250 253 256 256 255 257 259 256 260 260 265 270 272 276 276 278 280 282 283 284 286 288 289 290 291 291 292 293 293 294 295 295 296 296 299 300 300 302 302 301 302 303
243 248 247 243 239 244 251 258 257 260 262 263 267 273 275 276 278 279 281 284 285 286 290 290 290 291 291 292 292 293 294 295 297 298 299 299 300 301 301 302 304 304 303
237 239 238 242 244 247 255 259 258 259 266 270 270 271 275 277 278 280 282 284 286 286 286 286 289 291 292 292 292 293 296 296 299 299 298 299 301 303 303 303 304 304 305
230 228 230 240 248 248 250 256 259 260 266 267 268 271 274 277 279 280 281 284 286 287 288 289 291 291 291 293 294 296 295 298 298 298 298 300 302 303 304 304 305 306 306
227 226 229 238 242 249 255 260 263 263 267 271 271 275 275 278 278 280 284 286 287 287 285 286 290 289 290 294 292 295 297 298 298 300 302 302 304 304 305 306 307 306 307
228 236 238 243 246 248 257 262 263 265 269 272 272 275 276 277 279 282 283 284 287 286 288 289 292 292 294 294 294 297 298 299 300 301 303 303 305 306 307 307 306 307 307
229 236 248 247 246 250 258 264 266 268 269 270 274 276 277 280 284 283 282 283 286 287 289 289 289 293 294 294 296 298 299 300 300 301 303 305 306 307 307 306 307 310 311
240 242 241 248 253 258 262 265 266 268 270 272 277 277 279 280 282 282 283 284 287 286 288 288 290 292 294 296 297 298 300 301 302 304 306 307 307 307 307 310 312 312 311
234 244 253 255 258 257 260 267 268 268 272 276 276 277 279 281 282 284 285 286 287 287 288 290 291 295 296 298 298 300 301 303 304 306 307 308 308 310 311 312 312 312 312
243 246 257 257 260 264 267 269 271 273 275 278 280 282 282 282 283 284 286 286 289 290 291 293 293 296 297 299 300 302 304 305 306 307 308 310 311 311 311 311 312 313 314
253 256 260 264 265 267 269 272 274 275 277 278 279 280 282 283 284 285 288 288 292 292 293 295 296 297 299 300 303 304 305 306 308 309 309 309 310 311 312 314 314 315 315
260 262 265 270 272 272 272 274 276 276 276 278 279 279 283 285 287 289 291 289 292 295 295 297 298 299 301 304 304 305 307 308 308 308 309 311 312 313 315 315 315 316 317
267 268 271 269 270 273 273 276 276 277 278 279 282 284 288 290 289 293 294 294 295 296 297 298 301 303 304 305 306 306 307 308 309 311 312 312 314 316 316 315 316 318 317
263 264 270 273 273 277 280 286 285 285 287 288 289 290 292 292 293 293 294 296 297 300 303 304 305 304 304 305 307 309 309 311 313 313 313 315 316 317 316 316 317 319 319
277 277 277 279 282 285 287 290 291 292 292 293 294 292 293 294 297 298 299 300 303 302 302 303 304 305 307 309 311 311 311 313 316 316 316 317 318 317 317 317 319 321 321
277 283 283 286 288 290 291 293 295 295 297 299 301 302 302 303 301 300 302 301 300 302 304 306 308 310 313 313 314 314 315 318 318 318 318 318 319 319 317 318 321 323 321
287 289 290 291 293 297 299 303 307 308 306 305 303 301 299 300 300 302 302 304 306 307 310 312 314 315 316 317 317 316 318 319 319 318 319 320 320 319 319 321 323 323 320
293 294 294 298 304 308 310 310 310 307 305 308 310 308 306 307 307 307 309 310 311 313 314 316 318 319 318 318 318 320 320 320 319 319 320 320 320 320 322 324 324 323 321
298 300 306 309 311 312 313 314 313 311 320 322 321 319 317 315 315 314 314 316 316 317 319 321 322 321 320 320 321 321 322 321 320 321 322 321 322 324 325 325 324 324 324
302 310 312 314 317 318 318 319 324 327 332 330 327 325 324 323 322 321 321 320 320 322 324 325 324 324 322 323 324 324 323 322 322 323 323 323 323 325 325 325 326 327 326
308 310 313 318 322 323 324 324 330 331 332 331 328 326 327 325 324 323 324 324 326 327 328 327 327 325 325 325 326 325 324 324 324 324 324 324 325 326 326 327 328 329 328
308 311 314 320 323 325 325 328 330 331 329 328 328 327 327 326 326 325 326 328 329 329 329 328 328 327 327 326 327 326 326 326 326 326 326 325 324 325 326 327 328 329 329
Height
10582 10588 10594 10597 10601 10602 10602 10603 10602 10604 10599 10592 10588 10584 10578 10572 10566 10560 10553 10544 10535 10527 10518 10509 10501 10491 10479 10468 10456 10441 10428 10416 10406 10389 10372 10360 10345 10332 10316 10299 10283 10266 10249
10569 10574 10580 10583 10586 10589 10590 10590 10591 10585 10580 10578 10573 10568 10562 10555 10549 10543 10535 10527 10518 10509 10500 10491 10480 10470 10457 10445 10430 10415 10402 10388 10378 10363 10345 10331 10314 10298 10285 10268 10249 10230 10214
10556 10561 10566 10570 10574 10576 10578 10577 10574 10569 10567 10563 10558 10552 10545 10539 10533 10526 10519 10510 10501 10491 10482 10471 10460 10447 10433 10419 10405 10390 10375 10360 10347 10331 10317 10301 10286 10270 10253 10234 10215 10196 10176
10545 10549 10555 10560 10563 10564 10562 10562 10559 10556 10553 10548 10541 10535 10528 10523 10516 10509 10500 10491 10482 10471 10460 10449 10437 10422 10409 10394 10378 10361 10346 10331 10315 10299 10282 10269 10251 10236 10218 10200 10181 10157 10137
10531 10538 10545 10548 10549 10549 10548 10546 10543 10540 10536 10531 10525 10519 10513 10506 10499 10491 10481 10471 10459 10449 10438 10424 10411 10398 10382 10365 10350 10333 10317 10301 10283 10267 10250 10231 10214 10196 10176 10158 10139 10122 10102
10521 10529 10533 10534 10535 10535 10534 10532 10529 10525 10519 10515 10510 10504 10497 10489 10482 10472 10461 10451 10439 10426 10413 10401 10385 10368 10352 10338 10319 10304 10286 10271 10255 10234 10217 10195 10177 10157 10138 10118 10098 10078 10068
10508 10514 10520 10521 10520 10520 10519 10517 10514 10508 10506 10501 10494 10487 10480 10470 10462 10452 10439 10428 10414 10402 10387 10371 10357 10344 10328 10311 10291 10274 10255 10235 10218 10199 10179 10157 10138 10116 10101 10083 10059 10037 10013
10497 10502 10505 10508 10508 10507 10504 10502 10501 10496 10489 10483 10476 10468 10460 10452 10439 10430 10417 10404 10389 10372 10359 10347 10331 10317 10302 10285 10266 10247 10225 10205 10182 10163 10141 10120 10099 10080 10059 10040 10020 9999 9974
10487 10490 10491 10491 10492 10493 10490 10486 10483 10478 10474 10467 10458 10450 10439 10427 10416 10404 10390 10376 10363 10352 10338 10322 10308 10285 10273 10257 10237 10217 10196 10173 10150 10125 10101 10081 10061 10038 10018 9998 9976 9957 9940
10475 10478 10482 10482 10481 10477 10476 10473 10468 10464 10454 10446 10436 10426 10416 10402 10390 10379 10370 10355 10343 10324 10312 10295 10278 10257 10235 10218 10202 10182 10161 10141 10117 10093 10071 10044 10024 10000 9979 9955 9936 9919 9902
10468 10471 10471 10468 10468 10466 10462 10456 10451 10442 10432 10424 10414 10404 10395 10384 10370 10357 10343 10327 10313 10299 10282 10265 10248 10230 10208 10188 10170 10151 10126 10107 10084 10060 10040 10019 9995 9971 9949 9923 9901 9883 9861
10460 10461 10459 10458 10455 10450 10444 10437 10429 10421 10410 10403 10394 10383 10373 10360 10345 10329 10317 10304 10288 10271 10256 10237 10218 10197 10179 10158 10136 10116 10094 10072 10048 10028 10006 9984 9962 9938 9916 9893 9871 9851 9828
10448 10447 10443 10441 10436 10431 10423 10417 10407 10400 10393 10380 10369 10360 10350 10335 10323 10308 10292 10279 10263 10246 10227 10208 10188 10168 10146 10127 10102 10083 10060 10038 10015 9995 9974 9951 9929 9904 9882 9862 9842 9824 9801
10434 10430 10427 10423 10418 10411 10404 10397 10391 10382 10373 10363 10351 10336 10324 10311 10297 10283 10267 10250 10235 10218 10200 10177 10156 10138 10115 10094 10072 10049 10027 10005 9984 9963 9941 9918 9897 9874 9853 9835 9816 9799 9780
10419 10417 10413 10407 10401 10394 10386 10380 10371 10360 10350 10337 10324 10314 10301 10288 10274 10259 10244 10224 10205 10183 10169 10147 10126 10105 10083 10062 10041 10019 9998 9977 9956 9931 9909 9890 9870 9846 9824 9806 9788 9771 9755
10407 10403 10397 10389 10383 10378 10371 10362 10352 10338 10327 10317 10305 10292 10279 10264 10247 10232 10215 10199 10181 10158 10135 10116 10096 10075 10055 10035 10012 9990 9967 9948 9926 9903 9880 9861 9841 9818 9799 9777 9761 9747 9732
10390 10384 10378 10373 10366 10356 10348 10339 10328 10317 10303 10292 10280 10267 10255 10235 10223 10205 10184 10163 10145 10127 10106 10087 10068 10048 10027 10005 9985 9963 9943 9920 9899 9876 9851 9830 9811 9790 9771 9753 9739 9727 9710
10377 10372 10365 10355 10349 10340 10331 10318 10306 10293 10280 10267 10255 10241 10225 10208 10190 10173 10155 10136 10115 10098 10081 10061 10042 10022 10001 9980 9958 9936 9911 9891 9871 9849 9825 9804 9785 9767 9747 9729 9719 9710 9695
10359 10353 10347 10340 10332 10322 10309 10297 10283 10270 10257 10242 10227 10212 10196 10181 10163 10146 10128 10110 10092 10073 10054 10035 10017 9998 9976 9954 9930 9906 9883 9862 9843 9819 9798 9779 9763 9747 9727 9712 9701 9689 9677
10343 10339 10331 10322 10312 10300 10289 10275 10262 10249 10234 10218 10200 10184 10170 10155 10138 10121 10105 10087 10068 10052 10033 10013 9992 9971 9950 9925 9901 9876 9852 9833 9812 9792 9774 9758 9743 9726 9710 9696 9684 9673 9659
10328 10321 10311 10301 10291 10280 10268 10254 10241 10225 10210 10195 10179 10165 10148 10133 10115 10099 10082 10064 10046 10028 10009 9987 9965 9943 9921 9897 9873 9848 9826 9806 9787 9768 9753 9738 9724 9708 9693 9682 9670 9659 9647
10310 10301 10292 10282 10271 10259 10247 10235 10221 10205 10191 10176 10159 10144 10129 10113 10095 10077 10059 10039 10020 10001 9983 9965 9942 9917 9895 9873 9850 9826 9801 9784 9764 9747 9733 9719 9706 9692 9680 9669 9657 9647 9634
10292 10283 10273 10263 10253 10241 10229 10215 10200 10185 10170 10154 10137 10122 10106 10089 10072 10054 10036 10016 9996 9977 9958 9938 9917 9894 9871 9850 9828 9805 9784 9763 9745 9730 9714 9700 9688 9677 9666 9656 9646 9635 9623
10275 10265 10256 10246 10234 10221 10207 10193 10178 10162 10146 10130 10115 10100 10083 10066 10049 10031 10013 9995 9975 9954 9933 9912 9890 9869 9848 9826 9806 9784 9766 9747 9729 9713 9700 9687 9675 9664 9652 9643 9634 9625 9614
10256 10247 10237 10226 10214 10200 10187 10173 10157 10141 10126 10111 10097 10080 10063 10046 10027 10009 9991 9972 9952 9930 9908 9888 9868 9847 9826 9806 9787 9767 9749 9732 9716 9700 9684 9671 9660 9651 9641 9632 9624 9614 9605
10238 10230 10220 10207 10194 10181 10167 10153 10138 10124 10109 10095 10078 10062 10046 10028 10010 9990 9971 9951 9930 9909 9887 9867 9847 9826 9806 9787 9769 9750 9733 9718 9703 9687 9673 9660 9649 9640 9631 9623 9615 9607 9598